FW1075 Weather Reports


time (UTC)temp
C
wind
direction
speed
KPH
gust
KPH
rain 1hr
cm
rain 24hr
cm
rain mn
cm
humidity
%
barometer
mb
20260504193144 22 205 8.0 12.9 0.00 0.00 0.00 53 1008.6
20260504192122 22 227 6.4 14.5 0.00 0.00 0.00 51 1008.8
20260504191123 21 217 8.0 14.5 0.00 0.00 0.00 52 1008.8
20260504190123 22 247 8.0 14.5 0.00 0.00 0.00 49 1008.8
20260504185121 22 181 8.0 14.5 0.00 0.00 0.00 51 1008.9
20260504184122 22 253 8.0 12.9 0.00 0.00 0.00 51 1009.0
20260504183122 23 277 6.4 12.9 0.00 0.00 0.00 48 1009.1
20260504182122 22 225 9.7 14.5 0.00 0.00 0.00 46 1009.1
20260504181122 23 280 9.7 24.1 0.00 0.00 0.00 43 1009.2
20260504180122 23 240 9.7 16.1 0.00 0.00 0.00 42 1009.2
20260504175122 22 262 9.7 16.1 0.00 0.00 0.00 42 1009.2
20260504174123 22 229 8.0 16.1 0.00 0.00 0.00 42 1009.2
20260504173122 22 162 11.3 16.1 0.00 0.00 0.00 41 1009.4
20260504172145 22 209 9.7 16.1 0.00 0.00 0.00 43 1009.7
20260504171121 22 195 9.7 17.7 0.00 0.00 0.00 44 1009.9
20260504170142 21 260 8.0 19.3 0.00 0.00 0.00 44 1009.9
20260504160122 21 272 11.3 16.1 0.00 0.00 0.00 41 1010.6
20260504151124 20 244 8.0 16.1 0.00 0.00 0.00 44 1011.4
20260504150121 20 244 11.3 20.9 0.00 0.00 0.00 44 1011.4
20260504141123 19 274 8.0 14.5 0.00 0.00 0.00 49 1011.6
20260504140122 18 275 9.7 19.3 0.00 0.00 0.00 49 1011.6
20260504130122 16 255 11.3 17.7 0.00 0.00 0.00 55 1012.2
20260504120143 14 244 8.0 16.1 0.00 0.00 0.00 63 1012.5
20260504110142 11 230 4.8 11.3 0.00 0.00 0.00 68 1012.5
20260504100122 8 252 3.2 8.0 0.00 0.00 0.00 68 1012.2
20260504090121 10 246 4.8 8.0 0.00 0.00 0.00 60 1011.9
20260504081124 10 261 4.8 9.7 0.00 0.00 0.00 59 1011.6
20260504080124 10 264 6.4 17.7 0.00 0.00 0.00 59 1011.6
20260504070122 10 267 4.8 9.7 0.00 0.00 0.00 58 1011.2
20260504060122 10 243 4.8 9.7 0.00 0.00 0.00 59 1011.2
20260504050121 10 271 3.2 8.0 0.00 0.00 0.00 61 1011.0
20260504045121 10 262 3.2 6.4 0.00 0.00 0.00 61 1011.0
20260504044122 9 273 3.2 6.4 0.00 0.00 0.00 62 1010.9
20260504043121 9 250 3.2 6.4 0.00 0.00 0.00 63 1010.8
20260504042123 8 255 3.2 6.4 0.00 0.00 0.00 64 1010.7
20260504041121 8 260 1.6 3.2 0.00 0.00 0.00 65 1010.8
20260504040121 8 269 1.6 4.8 0.00 0.00 0.00 65 1010.8
20260504035121 8 180 0.0 0.0 0.00 0.00 0.00 64 1010.7
20260504034121 8 225 0.0 4.8 0.00 0.00 0.00 63 1010.7
20260504033121 8 218 0.0 3.2 0.00 0.00 0.00 62 1010.6
20260504032142 8 180 0.0 0.0 0.00 0.00 0.00 61 1010.6
20260504031121 8 258 0.0 3.2 0.00 0.00 0.00 60 1010.5
20260504030121 8 225 0.0 0.0 0.00 0.00 0.00 59 1010.5
20260504025121 8 180 0.0 0.0 0.00 0.00 0.00 59 1010.5
20260504024122 8 241 1.6 12.9 0.00 0.00 0.00 58 1010.6
20260504023121 8 212 0.0 4.8 0.00 0.00 0.00 60 1010.6
20260504022122 8 203 0.0 0.0 0.00 0.00 0.00 59 1010.6
20260504021122 8 180 0.0 0.0 0.00 0.00 0.00 59 1010.6
20260504020122 8 203 0.0 0.0 0.00 0.00 0.00 56 1010.6
20260504015123 9 203 0.0 0.0 0.00 0.00 0.00 55 1010.5
20260504014122 10 338 0.0 0.0 0.00 0.00 0.00 53 1010.4
20260504013124 11 23 0.0 0.0 0.00 0.00 0.00 48 1010.2
20260504012124 11 90 0.0 0.0 0.00 0.00 0.00 48 1010.1
20260504011124 11 203 0.0 0.0 0.00 0.00 0.00 48 1010.0
20260504010121 11 270 0.0 0.0 0.00 0.00 0.00 47 1009.8
20260504005121 11 287 0.0 3.2 0.00 0.00 0.00 45 1009.8
20260504004121 12 291 1.6 3.2 0.00 0.00 0.00 44 1009.6
20260504003122 12 260 0.0 4.8 0.00 0.00 0.00 43 1009.5
20260504002121 13 283 1.6 4.8 0.00 0.00 0.00 41 1009.2
20260504001125 13 284 3.2 6.4 0.00 0.00 0.00 40 1009.2
20260504000145 13 293 4.8 8.0 0.00 0.00 0.00 39 1009.2
20260503235124 13 296 4.8 11.3 0.00 0.00 0.00 38 1009.0
20260503234121 14 302 6.4 12.9 0.00 0.00 0.00 37 1008.8
20260503233121 14 310 8.0 12.9 0.00 0.00 0.00 37 1008.7
20260503232121 14 315 8.0 16.1 0.00 0.00 0.00 36 1008.7
20260503231121 15 305 8.0 17.7 0.00 0.00 0.00 36 1008.6
20260503230121 15 317 8.0 17.7 0.00 0.00 0.00 36 1008.6
20260503225127 15 316 9.7 16.1 0.00 0.00 0.00 35 1008.6
20260503224126 15 305 11.3 19.3 0.00 0.00 0.00 34 1008.5
20260503223124 15 291 8.0 20.9 0.00 0.00 0.00 34 1008.2
20260503222123 15 293 9.7 19.3 0.00 0.00 0.00 34 1008.5
20260503221122 15 302 12.9 20.9 0.00 0.00 0.00 34 1008.4
20260503220123 15 44 11.3 17.7 0.00 0.00 0.00 33 1008.4
20260503215122 15 295 11.3 25.7 0.00 0.00 0.00 34 1008.5
20260503214123 16 299 12.9 27.4 0.00 0.00 0.00 34 1008.5
20260503213125 16 328 11.3 25.7 0.00 0.00 0.00 34 1008.2
20260503212121 16 277 11.3 30.6 0.00 0.00 0.00 33 1008.1
20260503211143 17 285 9.7 27.4 0.00 0.00 0.00 33 1008.1
20260503210121 17 289 11.3 20.9 0.00 0.00 0.00 33 1008.1
20260503205121 17 340 12.9 29.0 0.00 0.00 0.00 33 1008.2
20260503204122 17 316 11.3 22.5 0.00 0.00 0.00 32 1008.1
20260503203121 17 284 11.3 22.5 0.00 0.00 0.00 32 1008.2
20260503202121 17 292 11.3 22.5 0.00 0.00 0.00 33 1008.4
20260503201121 16 300 16.1 29.0 0.00 0.00 0.00 34 1008.4
20260503200142 16 322 11.3 19.3 0.00 0.00 0.00 34 1008.2
20260503195142 17 291 14.5 29.0 0.00 0.00 0.00 34 1008.2
20260503194122 17 295 9.7 19.3 0.00 0.00 0.00 34 1008.5